Location: Riverside Cemetery
(38.3047°N, 99.7773°W)
Time: 01:14:29
(UTC+00:00)

Cosmos 1680 Rocket - Pass Details

Date: 19 September 2020
Orbit: 760 x 781 km, 74.1° (Epoch: 23 October)

Event Time Altitude Azimuth Distance (km) Brightness Sun altitude
Rises 01:36:08 0° 337° (NNW) 3,232 7.2 -11.5°
Reaches altitude 10° 01:38:32 10° 334° (NNW) 2,304 6.5 -11.9°
Maximum altitude 01:43:39 59° 256° (WSW) 886 4.1 -12.9°
Drops below altitude 10° 01:48:47 10° 177° (S) 2,302 5.8 -13.9°
Sets 01:51:11 0° 174° (S) 3,228 6.5 -14.4°
